Key West NAF, FL

9:13 AM EDT on July 29, 2017 (GMT -0400)
Key West Naval Air Station

Weather History for KNQX - October, 2013

Change the Weather History Date:

Wednesday, October 30, 2013

  Actual Average Record
Temperature  
Mean Temperature 80 °F -  
Max Temperature 84 °F 82 °F 89 °F (1993)
Min Temperature 75 °F 74 °F 65 °F (1952)
Cooling Degree Days 14    
Growing Degree Days 30 (Base 50)    
Moisture  
Dew Point 67 °F    
Average Humidity 67    
Maximum Humidity 82    
Minimum Humidity 55    
Precipitation  
Precipitation 0.00 in - - ()
Sea Level Pressure  
Sea Level Pressure 30.10 in    
Wind  
Wind Speed 11 mph (ENE)    
Max Wind Speed 17 mph    
Max Gust Speed 23 mph    
Visibility 10 miles    
Events      
Averages and records for this station are not official NWS values.
T = Trace of Precipitation, MM = Missing Value Source: NWS Daily Summary

Daily Weather History Graph

Daily Weather History Graph

Search for Another Location

Airport or City:

Trip Planner

Search our weather history database for the weather conditions in past years. The results will help you decide how hot, cold, wet, or windy it might be!

Date:

Astronomy

Oct. 30, 2013 Rise Set
Actual Time 7:32 AM EDT 6:47 PM EDT
Civil Twilight 7:09 AM EDT 7:11 PM EDT
Nautical Twilight 6:42 AM EDT 7:38 PM EDT
Astronomical Twilight 6:15 AM EDT 8:04 PM EDT
Moon 3:44 AM EDT (10/30) 4:11 PM EDT (10/30)
Length of Visible Light 12h 02m
Length of Day
11h 15m
Waning Crescent, 17% of the Moon is Illuminated
Oct 30
Waning Crescent
Nov 3
New
Nov 10
First Quarter
Nov 17
Full
Nov 25
Last Quarter

Hourly Weather History & Observations

Time (EDT) Temp. Heat Index Dew Point Humidity Pressure Visibility Wind Dir Wind Speed Gust Speed Precip Events Conditions
12:53 AM 77.0 °F - 69.1 °F 76% 30.13 in 10.0 mi NE 8.1 mph - N/A   Clear
1:53 AM 77.0 °F - 70.0 °F 79% 30.11 in 10.0 mi NE 6.9 mph - N/A   Clear
5:53 AM 77.0 °F - 69.8 °F 78% 30.09 in 10.0 mi NE 10.4 mph - N/A   Clear
6:53 AM 75.9 °F - 66.9 °F 74% 30.10 in 10.0 mi NE 6.9 mph - N/A   Clear
7:53 AM 75.0 °F - 69.1 °F 82% 30.12 in 10.0 mi NE 8.1 mph - N/A   Partly Cloudy
8:53 AM 78.1 °F - 68.0 °F 71% 30.13 in 10.0 mi ENE 9.2 mph - N/A   Partly Cloudy
9:53 AM 80.1 °F 82.3 °F 66.9 °F 64% 30.14 in 10.0 mi ENE 12.7 mph - N/A   Partly Cloudy
10:53 AM 82.0 °F 84.1 °F 66.0 °F 58% 30.15 in 10.0 mi ENE 13.8 mph 19.6 mph N/A   Partly Cloudy
11:53 AM 82.0 °F 83.8 °F 64.9 °F 56% 30.14 in 10.0 mi ENE 15.0 mph 20.7 mph N/A   Partly Cloudy
12:53 PM 84.0 °F 86.3 °F 66.0 °F 55% 30.12 in 10.0 mi NE 12.7 mph 19.6 mph N/A   Partly Cloudy
1:53 PM 82.9 °F 85.4 °F 66.9 °F 58% 30.09 in 10.0 mi ENE 15.0 mph 21.9 mph N/A   Partly Cloudy
2:53 PM 84.0 °F 86.5 °F 66.9 °F 56% 30.06 in 10.0 mi East 17.3 mph - N/A   Scattered Clouds
3:53 PM 82.9 °F 85.4 °F 66.9 °F 58% 30.05 in 10.0 mi East 17.3 mph - N/A   Scattered Clouds
4:53 PM 82.0 °F 84.1 °F 66.0 °F 58% 30.05 in 10.0 mi ENE 12.7 mph 20.7 mph N/A   Partly Cloudy
5:53 PM 81.0 °F 83.0 °F 66.0 °F 60% 30.05 in 10.0 mi ENE 13.8 mph 23.0 mph N/A   Clear
6:53 PM 79.0 °F - 66.9 °F 66% 30.06 in 10.0 mi ENE 17.3 mph 23.0 mph N/A   Partly Cloudy
7:53 PM 79.0 °F - 66.9 °F 66% 30.08 in 10.0 mi ENE 15.0 mph 21.9 mph N/A   Partly Cloudy
8:53 PM 78.1 °F - 66.9 °F 68% 30.09 in 10.0 mi ENE 11.5 mph 18.4 mph N/A   Partly Cloudy
9:53 PM 78.1 °F - 68.0 °F 71% 30.10 in 10.0 mi ENE 8.1 mph - N/A   Clear
10:53 PM 77.0 °F - 69.1 °F 76% 30.10 in 10.0 mi ENE 8.1 mph - N/A   Clear
11:53 PM 77.0 °F - 69.1 °F 76% 30.09 in 10.0 mi ENE 5.8 mph - N/A   Clear